MPEC 2003-Y25 : 2003 YO1

The following Minor Planet Electronic Circular may be linked-to from your own Web pages, but must not otherwise be redistributed electronically.


Read MPEC 2003-Y24 Read MPEC 2003-Y26


M.P.E.C. 2003-Y25                                Issued 2003 Dec. 19, 00:28 UT

     The Minor Planet Electronic Circulars contain information on unusual
         minor planets and routine data on comets.  They are published
   on behalf of Commission 20 of the International Astronomical Union by the
          Minor Planet Center, Smithsonian Astrophysical Observatory,
                          Cambridge, MA 02138, U.S.A.

         Supported in part by the Steven and Michele Kirsch Foundation
             Prepared using the Tamkin Foundation Computer Network

                              MPC@CFA.HARVARD.EDU
          URL http://cfa-www.harvard.edu/iau/mpc.html  ISSN 1523-6714

                                   2003 YO1

Observations:
     K03Y01O* C2003 12 18.17812 03 49 49.36 +28 52 39.7          20.0 V EY025691
     K03Y01O  C2003 12 18.20534 03 49 43.81 +28 52 51.1          20.3 V EY025691
     K03Y01O  C2003 12 18.23693 03 49 37.42 +28 53 04.1          20.1 V EY025691
     K03Y01O  C2003 12 18.80069 03 47 47.86 +28 56 44.9                 EY025557
     K03Y01O  C2003 12 18.80291 03 47 47.43 +28 56 45.4                 EY025557
     K03Y01O  C2003 12 18.80734 03 47 46.53 +28 56 47.2                 EY025557
     K03Y01O  C2003 12 18.80956 03 47 46.09 +28 56 47.9                 EY025557
     K03Y01O  C2003 12 18.81177 03 47 45.60 +28 56 49.3                 EY025557
     K03Y01O  C2003 12 18.81399 03 47 45.11 +28 56 50.4                 EY025557
     K03Y01O  C2003 12 18.83634 03 47 40.73 +28 57 00.0          19.2 R EY025246
     K03Y01O  C2003 12 18.83725 03 47 40.57 +28 57 00.3                 EY025246
     K03Y01O  C2003 12 18.83808 03 47 40.41 +28 57 00.3                 EY025246
     K03Y01O  C2003 12 18.83918 03 47 40.14 +28 57 01.0                 EY025246
     K03Y01O  C2003 12 18.84012 03 47 39.96 +28 57 00.8                 EY025246
     K03Y01O  C2003 12 18.84263 03 47 39.38 +28 57 02.7                 EY025118
     K03Y01O  C2003 12 18.84757 03 47 38.46 +28 57 04.4                 EY025118
     K03Y01O  C2003 12 18.86338 03 47 35.29 +28 57 10.9                 EY025118

Observer details:
118 Modra.  Observers L. Kornos, D. Kalmancok.  0.6-m f/5.5 reflector + CCD.
246 Klet Observatory-KLENOT.  Observers M. Tichy, M. Kocer.  1.06-m KLENOT
    Telescope + CCD.
557 Ondrejov.  Observer P. Kusnirak.  0.65-m f/3.6 reflector + CCD.
691 Steward Observatory, Kitt Peak.  Observer R. S. McMillan.  0.9-m f/3
    reflector + CCD.

Orbital elements:
2003 YO1
Epoch 2003 Dec. 7.0 TT = JDT 2452980.5                  MPC
M 263.39825              (2000.0)            P               Q
n   0.69460470     Peri.  145.04721     -0.87071411     +0.46049801
a   1.2627312      Node    63.26667     -0.48366834     -0.73832250
e   0.3896017      Incl.   11.14441     -0.08900494     -0.49276919
P   1.42           H   20.0           G   0.15
From 17 observations 2003 Dec. 18-18.

Ephemeris:
2003 YO1                 a,e,i = 1.26, 0.39, 11                  q = 0.7708
Date    TT    R. A. (2000) Decl.     Delta      r     Elong.  Phase     V
2003 12 17    03 53.68   +28 44.4    0.479    1.435   156.4    15.9    20.1
2003 12 27    03 22.90   +29 40.9    0.479    1.385   140.0    27.2    20.3
2004 01 06    02 59.43   +30 17.8    0.493    1.330   125.2    37.2    20.6
2004 01 16    02 44.97   +30 54.8    0.515    1.272   112.4    45.6    20.8
2004 01 26    02 38.89   +31 45.2    0.537    1.212   101.5    52.7    21.0
2004 02 05    02 39.70   +32 54.3    0.553    1.149    92.3    59.0    21.1
2004 02 15    02 45.70   +34 20.7    0.559    1.085    84.2    64.9    21.2
2004 02 25    02 55.48   +36 00.5    0.552    1.020    77.1    71.0    21.2
2004 03 06    03 07.51   +37 47.6    0.531    0.957    70.6    77.9    21.2
2004 03 16    03 19.75   +39 32.2    0.495    0.898    64.2    86.1    21.3
2004 03 26    03 29.23   +40 59.2    0.444    0.846    57.4    96.3    21.3
2004 04 05    03 30.85   +41 38.7    0.383    0.805    49.3   109.6    21.6
2004 04 15    03 17.45   +40 22.9    0.318    0.779    38.2   127.1    22.4
2004 04 25    02 44.75   +34 58.8    0.263    0.771    23.1   149.3    24.8
2004 05 05    02 02.32   +23 35.7    0.234    0.782    13.2   162.8    28.4
2004 05 15    01 30.02   +09 35.7    0.241    0.811    30.1   141.3    23.5
2004 05 25    01 15.01   -01 29.3    0.273    0.855    48.0   118.3    21.6
2004 06 04    01 12.34   -08 44.2    0.312    0.908    61.5   100.9    20.9
2004 06 14    01 15.92   -13 33.0    0.348    0.968    72.3    87.7    20.7
2004 06 24    01 21.29   -17 12.9    0.376    1.032    81.8    77.1    20.6
2004 07 04    01 25.50   -20 30.3    0.395    1.097    90.9    68.0    20.6
2004 07 14    01 26.40   -23 51.4    0.407    1.161   100.3    59.5    20.5
2004 07 24    01 21.87   -27 27.9    0.415    1.223   110.3    51.2    20.4
2004 08 03    01 10.14   -31 13.9    0.423    1.283   120.8    42.8    20.3
2004 08 13    00 50.12   -34 46.6    0.435    1.340   131.2    34.6    20.3
2004 08 23    00 22.51   -37 27.7    0.457    1.394   140.4    27.6    20.3
2004 09 02    23 51.24   -38 40.4    0.494    1.444   145.8    23.1    20.4
2004 09 12    23 21.94   -38 16.2    0.547    1.491   145.9    22.2    20.6
2004 09 22    22 59.11   -36 34.2    0.616    1.534   141.3    24.2    21.0
2004 10 02    22 44.38   -34 05.5    0.701    1.573   134.4    27.0    21.4
2004 10 12    22 37.02   -31 15.8    0.798    1.608   126.8    29.8    21.8
2004 10 22    22 35.65   -28 19.4    0.905    1.640   119.2    32.0    22.2

Timothy B. Spahr             (C) Copyright 2003 MPC           M.P.E.C. 2003-Y25

Read MPEC 2003-Y24 Read MPEC 2003-Y26


Our Web policy. Index to the CBAT/MPC/ICQ pages.

MPC